Orbital Elements at Epoch 2459000.5 (2020-May-31.0) TDB
Reference: JPL 8 (heliocentric ecliptic J2000)
Element | Value | Uncertainty (1-sigma) | Units |
e | .534205101099046 | 0.00082336 | |
a | 2.149367173888687 | 0.0037619 | au |
q | 1.00116426546251 | 1.7571e-05 | au |
i | 7.782827961788045 | 0.0083979 | deg |
node | 58.51026152304161 | 2.3411e-05 | deg |
peri | 216.3258488525949 | 0.0016544 | deg |
M | 205.0757239186026 | 1.4727 | deg |
tp | 2459495.814816507551 (2021-Oct-08.31481651) | 6.009 | TDB |
period | 1150.970903030281 3.15 | 3.0217 0.008273 | d yr |
n | .3127794100200018 | 0.00082115 | deg/d |
Q | 3.297570082314864 | 0.0057715 | au |
|
| | Orbit Determination Parameters
Additional Information
|